Location: *
(2.5500°S, 65.9667°W)
Time: 22:42:23
(UTC+00:00)

Vanguard 1 Rocket - All Passes

Search period start: 16 April 2024 00:00
Search period end: 26 April 2024 00:00
Orbit: 652 x 4219 km, 34.3° (Epoch: 16 April)

Date Brightness Start Highest point End Pass type
(mag) Time Alt. Az. Time Alt. Az. Time Alt. Az.
16 Apr - 03:13:36 10° NNE 03:18:31 12° NNE 03:24:21 10° NE visible
16 Apr - 05:33:45 10° NNW 05:50:34 46° NE 06:14:37 10° ESE visible
16 Apr - 08:00:30 10° NW 08:23:29 81° SW 08:48:48 10° SE visible
16 Apr - 10:35:26 10° W 10:58:28 38° SSW 11:16:52 10° SSE daylight
16 Apr - 13:23:32 10° SW 13:34:48 16° SSW 13:43:10 10° SSE daylight
16 Apr - 16:03:12 10° SSW 16:08:39 14° S 16:12:49 10° SE daylight
16 Apr - 18:30:19 10° SW 18:37:06 46° SSE 18:41:36 10° ENE daylight
16 Apr - 20:59:20 10° WNW 21:01:51 14° NW 21:04:18 10° N daylight
17 Apr - 04:22:44 10° NNW 04:35:31 29° NE 04:54:24 10° E visible
17 Apr - 06:47:05 10° NW 07:07:11 77° NE 07:33:37 10° ESE visible
17 Apr - 09:17:36 10° WNW 09:41:29 52° SW 10:03:51 10° SE visible
17 Apr - 12:00:09 10° WSW 12:17:52 23° SSW 12:30:56 10° SSE daylight
17 Apr - 14:46:54 10° SSW 14:53:53 14° S 14:59:12 10° SSE daylight
17 Apr - 17:17:16 10° SSW 17:24:41 26° SSE 17:29:29 10° E daylight
17 Apr - 19:45:03 10° WSW 19:50:23 41° NW 19:54:33 10° NNE daylight
18 Apr - 03:13:27 10° N 03:20:46 15° NE 03:30:26 10° ENE visible
18 Apr - 05:34:52 10° NW 05:51:38 55° NE 06:16:43 10° ESE visible
18 Apr - 08:02:09 10° WNW 08:24:35 70° SW 08:49:57 10° SE visible
18 Apr - 10:38:34 10° W 11:00:29 33° SSW 11:18:16 10° SSE daylight
18 Apr - 13:26:46 10° SW 13:37:52 16° S 13:46:02 10° SSE daylight
18 Apr - 16:03:24 10° SSW 16:11:17 20° SSE 16:16:37 10° ESE daylight
18 Apr - 18:31:34 10° SW 18:38:59 76° SE 18:43:40 10° ENE daylight
19 Apr - 04:23:41 10° NNW 04:36:54 35° NE 04:57:30 10° E visible
19 Apr - 06:48:28 10° NW 07:08:10 88° NE 07:34:56 10° SE visible
19 Apr - 09:20:01 10° W 09:43:03 45° SSW 10:05:02 10° SE visible
19 Apr - 12:04:05 10° WSW 12:20:42 21° SSW 12:33:02 10° SSE daylight
19 Apr - 14:47:46 10° SSW 14:56:46 17° S 15:03:06 10° SE daylight
19 Apr - 17:18:01 10° SW 17:26:52 39° SSE 17:32:06 10° E daylight
19 Apr - 19:47:24 10° W 19:51:59 24° NW 19:55:39 10° NNE daylight
20 Apr - 03:13:51 10° N 03:22:39 20° NE 03:35:15 10° E visible
20 Apr - 05:36:04 10° NW 05:52:37 65° NE 06:18:25 10° ESE visible
20 Apr - 08:04:03 10° WNW 08:25:51 60° SW 08:51:01 10° SE visible
20 Apr - 10:42:04 10° WSW 11:02:52 29° SSW 11:19:52 10° SSE daylight
20 Apr - 13:29:13 10° SW 13:40:56 18° S 13:49:20 10° SE daylight
20 Apr - 16:03:51 10° SSW 16:13:45 27° SSE 16:19:47 10° ESE daylight
20 Apr - 18:33:05 10° WSW 18:40:41 67° NW 18:45:25 10° NE daylight
21 Apr - 04:24:43 10° NNW 04:38:03 43° NE 05:00:00 10° ESE visible
21 Apr - 06:50:01 10° WNW 07:09:15 80° SW 07:36:03 10° SE visible
21 Apr - 09:22:45 10° W 09:44:56 39° SSW 10:06:16 10° SE visible
21 Apr - 12:07:45 10° SW 12:23:45 21° S 12:35:35 10° SSE daylight
21 Apr - 14:48:27 10° SSW 14:59:31 22° SSE 15:06:41 10° ESE daylight
21 Apr - 17:18:58 10° SW 17:28:52 59° SSE 17:34:20 10° ENE daylight
21 Apr - 19:50:29 10° WNW 19:53:32 15° NW 19:56:10 10° N daylight
22 Apr - 03:14:30 10° N 03:24:12 25° NE 03:39:10 10° E visible
22 Apr - 05:37:25 10° NW 05:53:36 77° NE 06:19:49 10° ESE visible
22 Apr - 08:06:13 10° WNW 08:27:21 52° SSW 08:52:03 10° SE visible
22 Apr - 10:45:47 10° WSW 11:05:34 26° SSW 11:21:45 10° SSE daylight
22 Apr - 13:30:57 10° SW 13:43:58 20° S 13:52:51 10° SE daylight
22 Apr - 16:04:28 10° SW 16:16:02 37° SSE 16:22:30 10° E daylight
22 Apr - 18:34:55 10° WSW 18:42:13 42° NW 18:46:53 10° NNE daylight
23 Apr - 02:07:41 10° NNE 02:10:33 11° NE 02:13:48 10° NE visible
23 Apr - 04:25:51 10° NNW 04:39:06 53° NE 05:02:02 10° ESE visible
23 Apr - 06:51:47 10° WNW 07:10:30 69° SW 07:37:01 10° SE visible
23 Apr - 09:25:52 10° W 09:47:08 34° SSW 10:07:40 10° SE visible
23 Apr - 12:10:53 10° SW 12:26:55 21° S 12:38:34 10° SE daylight
23 Apr - 14:49:04 10° SW 15:02:06 28° SSE 15:09:52 10° ESE daylight
23 Apr - 17:20:08 10° SW 17:30:39 87° SE 17:36:16 10° NE daylight
24 Apr - 03:15:21 10° NNW 03:25:30 31° NE 03:42:19 10° E visible
24 Apr - 05:38:53 10° NW 05:54:41 90° NE 06:20:58 10° SE visible
24 Apr - 08:08:41 10° W 08:29:08 44° SSW 08:53:07 10° SE visible
24 Apr - 10:49:29 10° WSW 11:08:34 24° SSW 11:24:02 10° SE daylight
24 Apr - 13:32:12 10° SW 13:46:50 24° S 13:56:17 10° ESE daylight
24 Apr - 16:05:12 10° SW 16:18:09 51° SSE 16:24:53 10° ENE daylight
24 Apr - 18:37:09 10° W 18:43:38 27° NW 18:48:01 10° NNE daylight
25 Apr - 02:06:38 10° N 02:12:19 15° NE 02:19:55 10° ENE visible
25 Apr - 04:27:07 10° NW 04:40:06 64° NE 05:03:39 10° ESE visible
25 Apr - 06:53:47 10° WNW 07:11:58 58° SSW 07:37:55 10° SE visible
25 Apr - 09:29:14 10° WSW 09:49:42 30° SSW 10:09:19 10° SE visible
25 Apr - 12:13:20 10° SW 12:30:02 22° S 12:41:50 10° SE daylight
25 Apr - 14:49:40 10° SW 15:04:29 36° SSE 15:12:40 10° E daylight
25 Apr - 17:21:33 10° WSW 17:32:13 65° NW 17:37:57 10° NE daylight
